AFR27HK LFPG-RJTT

Flight info

Callsign AFR27HK
Flight time N/A
Altitude 29000
Route BUBLI DCT LUVAL DCT BEGAR DCT TRA DCT GAMSA N871 MADEB N606 ELMEM L607 GEDSO DCT PODET/N0494F310 DCT RIGMU DCT MAVIT DCT LAMIT DCT ASNEL DCT UDROS DCT BAMUP DCT ROLIN N644 TETRO DCT BARAD M747 SUBUT T916 LEYLA/N0490F330 N161 GASBI/K0909F330 N161 SARIN/K0909S1010 A368 FKG W188 ADPET/K0896S1070 W188 LIKMI W270 DKO W69 HUR B339 LADIX W34 VAPGU W100 ORAVA W201 UNSEK A326 DONVO G597 AGAVO/N0484F350 Y644 EGOBA/N0481F370 G597 LANAT Y71 XAC
Aircraft B77W/H-SDE1E2E3FGHIJ2J3J4J5M1RWXY/LB1D1

Departure

Time 2026-05-09 08:24
Airport Charles de Gaulle International Airport (LFPG)

Arrival

Time N/A
Airport Tokyo Haneda International Airport (RJTT)
Time Latitude Longitude Altitude Speed Heading
2026-05-09 07:56 49.00573 2.58959 337 ft 0 kts 86°
2026-05-09 08:07 49.00573 2.58942 337 ft 2 kts 88°
2026-05-09 08:07 49.00572 2.58919 337 ft 2 kts 87°
2026-05-09 08:07 49.00571 2.58895 337 ft 2 kts 80°
2026-05-09 08:08 49.00566 2.58874 337 ft 2 kts 56°
2026-05-09 08:08 49.00556 2.58857 337 ft 2 kts 37°
2026-05-09 08:08 49.00543 2.58846 337 ft 2 kts 18°
2026-05-09 08:08 49.00528 2.58842 336 ft 2 kts 359°
2026-05-09 08:09 49.00514 2.58845 337 ft 2 kts 354°
2026-05-09 08:09 49.00499 2.58846 337 ft 1 kts 357°
2026-05-09 08:09 49.00493 2.58847 337 ft 1 kts 356°
2026-05-09 08:09 49.00492 2.58847 337 ft 0 kts 356°
2026-05-09 08:12 49.00503 2.58846 337 ft 3 kts 355°
2026-05-09 08:12 49.00538 2.58841 337 ft 6 kts 355°
2026-05-09 08:12 49.00599 2.58833 338 ft 11 kts 355°
2026-05-09 08:13 49.00692 2.58820 340 ft 14 kts 355°
2026-05-09 08:13 49.00790 2.58808 339 ft 12 kts 356°
2026-05-09 08:13 49.00852 2.58861 340 ft 10 kts 72°
2026-05-09 08:13 49.00863 2.58981 340 ft 12 kts 86°
2026-05-09 08:14 49.00871 2.59123 340 ft 14 kts 85°
2026-05-09 08:14 49.00880 2.59280 339 ft 14 kts 85°
2026-05-09 08:14 49.00860 2.59396 339 ft 10 kts 158°
2026-05-09 08:14 49.00780 2.59416 338 ft 14 kts 174°
2026-05-09 08:15 49.00657 2.59431 336 ft 20 kts 176°
2026-05-09 08:15 49.00523 2.59448 336 ft 18 kts 175°
2026-05-09 08:15 49.00399 2.59464 335 ft 17 kts 175°
2026-05-09 08:15 49.00275 2.59481 333 ft 17 kts 175°
2026-05-09 08:16 49.00160 2.59495 333 ft 14 kts 175°
2026-05-09 08:16 49.00092 2.59494 331 ft 8 kts 212°
2026-05-09 08:16 49.00070 2.59403 332 ft 9 kts 262°
2026-05-09 08:16 49.00063 2.59306 333 ft 10 kts 265°
2026-05-09 08:17 49.00056 2.59171 333 ft 14 kts 266°
2026-05-09 08:17 49.00046 2.58994 333 ft 18 kts 265°
2026-05-09 08:17 49.00034 2.58781 333 ft 21 kts 266°
2026-05-09 08:17 49.00021 2.58533 333 ft 24 kts 266°
2026-05-09 08:18 49.00008 2.58280 333 ft 23 kts 266°
2026-05-09 08:18 48.99995 2.58036 333 ft 23 kts 266°
2026-05-09 08:18 48.99983 2.57797 334 ft 22 kts 266°
2026-05-09 08:18 48.99971 2.57579 336 ft 19 kts 265°
2026-05-09 08:19 48.99961 2.57393 335 ft 16 kts 266°
2026-05-09 08:19 48.99954 2.57234 335 ft 14 kts 266°
2026-05-09 08:19 48.99945 2.57087 335 ft 13 kts 265°
2026-05-09 08:19 48.99937 2.56947 336 ft 13 kts 266°
2026-05-09 08:20 48.99929 2.56786 336 ft 16 kts 265°
2026-05-09 08:20 48.99918 2.56595 336 ft 21 kts 265°
2026-05-09 08:20 48.99905 2.56341 336 ft 23 kts 266°
2026-05-09 08:20 48.99893 2.56113 337 ft 19 kts 265°
2026-05-09 08:21 48.99894 2.55920 337 ft 16 kts 280°
2026-05-09 08:21 48.99921 2.55768 338 ft 13 kts 295°
2026-05-09 08:21 48.99932 2.55639 338 ft 12 kts 245°
2026-05-09 08:21 48.99901 2.55519 337 ft 11 kts 258°
2026-05-09 08:22 48.99891 2.55422 337 ft 10 kts 266°
2026-05-09 08:22 48.99884 2.55305 339 ft 11 kts 259°
2026-05-09 08:22 48.99820 2.55248 339 ft 14 kts 174°
2026-05-09 08:22 48.99728 2.55320 337 ft 14 kts 129°
2026-05-09 08:23 48.99672 2.55438 336 ft 12 kts 134°
2026-05-09 08:23 48.99611 2.55522 336 ft 10 kts 132°
2026-05-09 08:23 48.99589 2.55659 335 ft 18 kts 85°
2026-05-09 08:23 48.99610 2.56044 335 ft 64 kts 85°
2026-05-09 08:24 48.99664 2.57042 333 ft 122 kts 85°
2026-05-09 08:24 48.99748 2.58605 332 ft 174 kts 85°
2026-05-09 08:24 48.99847 2.60627 565 ft 197 kts 85°
2026-05-09 08:24 48.99954 2.62681 1197 ft 201 kts 85°
2026-05-09 08:25 49.00087 2.64813 1789 ft 206 kts 85°
2026-05-09 08:25 49.00200 2.67006 2269 ft 210 kts 86°
2026-05-09 08:25 49.00314 2.69300 2558 ft 226 kts 85°
2026-05-09 08:25 49.00440 2.71725 2990 ft 235 kts 86°
2026-05-09 08:26 49.00571 2.74261 3355 ft 248 kts 86°
2026-05-09 08:26 49.00708 2.76910 3786 ft 259 kts 86°
2026-05-09 08:26 49.00684 2.79677 4265 ft 266 kts 99°
2026-05-09 08:26 49.00384 2.82471 4868 ft 270 kts 101°
2026-05-09 08:27 49.00061 2.85301 5456 ft 274 kts 101°
2026-05-09 08:27 48.99734 2.88142 6027 ft 278 kts 101°
2026-05-09 08:27 48.99397 2.91054 6602 ft 282 kts 101°
2026-05-09 08:27 48.99055 2.94014 7191 ft 285 kts 101°
2026-05-09 08:28 48.98697 2.96988 7754 ft 288 kts 106°
2026-05-09 08:28 48.97997 2.99823 8259 ft 291 kts 116°
2026-05-09 08:28 48.97152 3.02641 8835 ft 294 kts 116°
2026-05-09 08:28 48.96300 3.05451 9389 ft 296 kts 117°
2026-05-09 08:29 48.95432 3.08307 9955 ft 299 kts 117°
2026-05-09 08:29 48.94558 3.11180 10355 ft 308 kts 117°
2026-05-09 08:29 48.93645 3.14173 10563 ft 323 kts 117°
2026-05-09 08:29 48.92667 3.17374 10791 ft 339 kts 116°
2026-05-09 08:30 48.91663 3.20662 11045 ft 354 kts 116°
2026-05-09 08:30 48.90603 3.24125 11313 ft 368 kts 116°
2026-05-09 08:30 48.89497 3.27736 11617 ft 382 kts 116°
2026-05-09 08:30 48.88372 3.31406 12075 ft 391 kts 116°
2026-05-09 08:31 48.87224 3.35149 12676 ft 396 kts 116°
2026-05-09 08:31 48.86047 3.38981 13288 ft 400 kts 116°
2026-05-09 08:31 48.84877 3.42781 13914 ft 404 kts 116°
2026-05-09 08:31 48.83688 3.46642 14516 ft 408 kts 116°
2026-05-09 08:32 48.82472 3.50581 15092 ft 413 kts 116°
2026-05-09 08:32 48.81288 3.54512 15700 ft 416 kts 112°
2026-05-09 08:32 48.79499 3.62926 16820 ft 426 kts 108°
2026-05-09 08:33 48.78621 3.67264 17359 ft 430 kts 108°
2026-05-09 08:33 48.77741 3.71593 17904 ft 434 kts 108°
2026-05-09 08:33 48.76850 3.75960 18464 ft 437 kts 109°
2026-05-09 08:33 48.75954 3.80336 19048 ft 439 kts 108°
2026-05-09 08:34 48.75050 3.84744 19634 ft 441 kts 108°
2026-05-09 08:34 48.74135 3.89191 20195 ft 443 kts 108°
2026-05-09 08:34 48.73226 3.93599 20722 ft 446 kts 108°
2026-05-09 08:34 48.72302 3.98066 21272 ft 447 kts 108°
2026-05-09 08:35 48.71368 4.02575 21800 ft 450 kts 108°
2026-05-09 08:35 48.70430 4.07092 22267 ft 453 kts 108°
2026-05-09 08:35 48.69491 4.11599 22705 ft 456 kts 108°
2026-05-09 08:35 48.68530 4.16200 23136 ft 460 kts 109°
2026-05-09 08:36 48.67570 4.20791 23609 ft 462 kts 108°
2026-05-09 08:36 48.66604 4.25396 24100 ft 464 kts 108°
2026-05-09 08:36 48.65615 4.30101 24562 ft 466 kts 108°
2026-05-09 08:36 48.64639 4.34735 25007 ft 469 kts 108°
2026-05-09 08:37 48.63652 4.39409 25436 ft 471 kts 108°
2026-05-09 08:37 48.62657 4.44112 25827 ft 474 kts 108°
2026-05-09 08:37 48.61653 4.48845 26211 ft 477 kts 108°
2026-05-09 08:37 48.60634 4.53637 26618 ft 480 kts 108°
2026-05-09 08:38 48.59615 4.58419 27038 ft 482 kts 108°
2026-05-09 08:38 48.58583 4.63250 27453 ft 484 kts 108°
2026-05-09 08:38 48.57551 4.68067 27828 ft 487 kts 109°
2026-05-09 08:38 48.56502 4.72953 28211 ft 489 kts 109°
2026-05-09 08:39 48.55452 4.77836 28659 ft 490 kts 109°
2026-05-09 08:39 48.54396 4.82729 29031 ft 491 kts 109°
2026-05-09 08:39 48.53335 4.87641 29030 ft 490 kts 109°
2026-05-09 08:40 48.51228 4.97352 29050 ft 488 kts 109°
2026-05-09 08:40 48.49103 5.07100 29044 ft 489 kts 109°
2026-05-09 08:41 48.46982 5.16784 29049 ft 488 kts 109°
2026-05-09 08:41 48.44850 5.26471 29046 ft 489 kts 109°
2026-05-09 08:42 48.42725 5.36087 29050 ft 488 kts 108°
2026-05-09 08:42 48.40571 5.45785 29056 ft 489 kts 108°
2026-05-09 08:43 48.38410 5.55471 29060 ft 490 kts 108°
2026-05-09 08:43 48.36233 5.65186 29061 ft 490 kts 109°
2026-05-09 08:44 48.34061 5.74831 29062 ft 491 kts 109°
2026-05-09 08:44 48.31865 5.84539 29069 ft 491 kts 109°
2026-05-09 08:45 48.29647 5.94301 29074 ft 493 kts 108°
2026-05-09 08:45 48.27436 6.03986 29075 ft 493 kts 108°
2026-05-09 08:46 48.25202 6.13727 29079 ft 493 kts 108°
2026-05-09 08:46 48.22979 6.23379 29080 ft 493 kts 108°
2026-05-09 08:47 48.20735 6.33076 29072 ft 492 kts 108°
2026-05-09 08:47 48.18489 6.42737 29078 ft 495 kts 108°
2026-05-09 08:48 48.16225 6.52435 29073 ft 494 kts 108°
2026-05-09 08:48 48.13948 6.62143 29080 ft 497 kts 108°
2026-05-09 08:49 48.11652 6.71886 29086 ft 497 kts 108°
2026-05-09 08:49 48.09345 6.81638 29089 ft 499 kts 108°
2026-05-09 08:50 48.07022 6.91409 29095 ft 498 kts 108°
2026-05-09 08:50 48.04691 7.01172 29099 ft 501 kts 108°
2026-05-09 08:51 48.02345 7.10955 29105 ft 500 kts 108°
2026-05-09 08:51 48.00008 7.20655 29098 ft 501 kts 108°
2026-05-09 08:52 47.97636 7.30457 29093 ft 502 kts 108°